Location: Newark
(50.2919°N, 19.2528°E)
Time: 01:29:10
(UTC+00:00)

ISS - Visible Passes

Search period start: 01 October 2020 00:00
Search period end: 11 October 2020 00:00
Orbit: 419 x 421 km, 51.6° (Epoch: 01 October)

Date Brightness Start Highest point End Pass type
(mag) Time Alt. Az. Time Alt. Az. Time Alt. Az.
01 Oct -3.7 17:30:20 10° WNW 17:33:42 80° SSW 17:35:42 23° ESE visible
01 Oct -1.1 19:07:30 10° W 19:08:40 16° WSW 19:08:40 16° WSW visible
02 Oct -2.5 18:20:00 10° W 18:23:02 31° SSW 18:23:16 31° SSW visible
03 Oct -2.9 17:32:35 10° W 17:35:49 44° SSW 17:37:54 19° SE visible
04 Oct -3.3 16:45:13 10° WNW 16:48:34 60° SSW 16:51:54 10° ESE visible
04 Oct -1.3 18:22:51 10° WSW 18:24:52 15° SW 18:25:36 14° SSW visible
05 Oct -1.6 17:35:04 10° W 17:37:44 22° SW 17:40:23 10° SSE visible
06 Oct -2.1 16:47:30 10° W 16:50:32 31° SSW 16:53:33 10° SSE visible
08 Oct -0.9 16:50:17 10° WSW 16:52:17 15° SW 16:54:16 10° S visible
